"2010/01/01","  * ","  * ","  * "
"2010/01/02","  * ","  * ","  * "
"2010/01/03","  * ","  * ","  * "
"2010/01/04","  * ","  * ","  * "
"2010/01/05","  * ","  * ","  * "
"2010/01/06","  * ","  * ","  * "
"2010/01/07","  * ","  * ","  * "
"2010/01/08",1013.9,1015.6,1012.3
"2010/01/09",1017.2,1019.0,1015.3
"2010/01/10",1018.5,1022.1,1016.3
"2010/01/11",1019.0,1022.2,1015.0
"2010/01/12",1008.5,1015.0,1000.9
"2010/01/13",1003.0,1010.4, 998.0
"2010/01/14",1016.1,1021.7,1010.4
"2010/01/15",1020.0,1021.5,1018.2
"2010/01/16",1024.7,1027.3,1020.2
"2010/01/17",1027.3,1029.0,1025.9
"2010/01/18",1027.5,1030.0,1025.4
"2010/01/19",1029.1,1031.3,1026.0
"2010/01/20",1021.0,1030.1,1010.5
"2010/01/21",1004.7,1011.2, 998.4
"2010/01/22",1014.5,1017.4,1011.1
"2010/01/23",1013.8,1016.3,1011.5
"2010/01/24",1019.6,1022.1,1016.2
"2010/01/25",1013.3,1018.9,1008.6
"2010/01/26",1020.5,1026.0,1012.1
"2010/01/27",1023.4,1027.4,1017.5
"2010/01/28",1009.3,1017.5,1004.0
"2010/01/29",1013.0,1016.4,1008.4
"2010/01/30",1018.4,1021.2,1016.1
"2010/01/31",1018.9,1021.4,1016.5
"2010/02/01",1012.3,1016.5,1005.2
"2010/02/02",1010.9,1014.2,1007.7
"2010/02/03",1013.2,1017.1,1009.3
"2010/02/04",1016.4,1018.1,1014.7
"2010/02/05",1012.0,1014.8,1009.2
"2010/02/06",1011.7,1018.7,1008.4
"2010/02/07",1020.7,1025.3,1018.2
"2010/02/08",1023.3,1026.1,1019.2
"2010/02/09",1014.7,1019.2,1011.8
"2010/02/10",1015.3,1017.9,1013.1
"2010/02/11",1017.0,1021.3,1011.0
"2010/02/12",1016.7,1020.8,1011.4
"2010/02/13","  * ","  * ","  * "
"2010/02/14","  * ","  * ","  * "
"2010/02/15","  * ","  * ","  * "
"2010/02/16","  * ","  * ","  * "
"2010/02/17","  * ","  * ","  * "
"2010/02/18","  * ","  * ","  * "
"2010/02/19","  * ","  * ","  * "
"2010/02/20","  * ","  * ","  * "
"2010/02/21","  * ","  * ","  * "
"2010/02/22",1022.8,1026.2,1018.6
"2010/02/23",1018.8,1020.3,1017.0
"2010/02/24",1022.3,1025.3,1019.7
"2010/02/25",1022.4,1025.8,1018.0
"2010/02/26",1014.5,1018.1,1012.0
"2010/02/27",1011.5,1016.6,1007.5
"2010/02/28",1015.8,1019.5,1013.4
"2010/03/01",1016.4,1019.9,1011.1
"2010/03/02",1014.9,1017.0,1010.7
"2010/03/03",1018.2,1026.8,1012.3
"2010/03/04",1026.4,1031.1,1016.2
"2010/03/05",1013.5,1017.7,1007.4
"2010/03/06",1015.7,1019.8,1012.6
"2010/03/07",1022.5,1025.9,1018.8
"2010/03/08",1027.9,1031.1,1025.0
"2010/03/09",1023.2,1029.9,1006.2
"2010/03/10",1000.6,1006.8, 996.8
"2010/03/11",1017.4,1027.1,1005.8
"2010/03/12",1026.3,1029.3,1022.1
"2010/03/13",1018.9,1022.9,1014.1
"2010/03/14",1028.0,1031.5,1022.7
"2010/03/15",1022.3,1030.8,1011.0
"2010/03/16",1003.9,1012.1, 999.1
"2010/03/17",1018.4,1020.9,1012.0
"2010/03/18",1016.6,1020.0,1012.4
"2010/03/19",1014.4,1016.6,1011.7
"2010/03/20",1009.1,1015.4,1000.2
"2010/03/21", 997.7,1010.3, 989.1
"2010/03/22",1016.3,1018.9,1010.1
"2010/03/23",1015.8,1017.7,1013.5
"2010/03/24",1020.0,1022.6,1016.3
"2010/03/25",1008.1,1018.5,1002.3
"2010/03/26",1014.0,1021.7,1007.1
"2010/03/27",1023.3,1025.8,1020.8
"2010/03/28",1023.8,1027.3,1019.7
"2010/03/29",1019.1,1023.6,1017.2
"2010/03/30",1028.9,1031.8,1023.5
"2010/03/31",1025.8,1030.6,1022.1
"2010/04/01",1016.2,1022.3,1007.6
"2010/04/02",1006.7,1015.5,1000.8
"2010/04/03",1019.6,1026.0,1014.9
"2010/04/04",1027.8,1030.1,1025.1
"2010/04/05",1018.8,1025.4,1013.0
"2010/04/06",1013.3,1015.4,1010.8
"2010/04/07",1013.7,1019.9,1009.3
"2010/04/08",1025.3,1030.6,1019.8
"2010/04/09",1028.6,1031.7,1024.9
"2010/04/10",1019.9,1025.1,1016.5
"2010/04/11",1016.9,1021.7,1013.6
"2010/04/12",1020.7,1023.9,1011.5
"2010/04/13",1005.6,1011.5,1002.4
"2010/04/14",1012.4,1019.0,1003.3
"2010/04/15",1022.2,1026.1,1018.2
"2010/04/16",1026.2,1028.5,1022.3
"2010/04/17",1021.9,1025.6,1018.8
"2010/04/18",1026.8,1028.0,1024.6
"2010/04/19",1025.9,1028.0,1022.4
"2010/04/20",1017.9,1022.5,1012.7
"2010/04/21",1013.4,1019.2,1011.0
"2010/04/22",1015.2,1021.4,1007.6
"2010/04/23",1009.2,1012.6,1006.9
"2010/04/24",1017.3,1023.2,1012.2
"2010/04/25",1024.7,1026.7,1022.5
"2010/04/26",1027.6,1030.7,1024.8
"2010/04/27",1026.4,1029.6,1022.7
"2010/04/28",1015.3,1022.9,1012.0
"2010/04/29",1010.3,1013.4,1006.2
"2010/04/30",1012.3,1014.6,1008.9
"2010/05/01",1014.7,1017.0,1012.9
"2010/05/02",1018.0,1020.1,1016.4
"2010/05/03",1019.0,1021.9,1015.9
"2010/05/04",1014.8,1017.1,1012.6
"2010/05/05",1014.3,1015.5,1012.9
"2010/05/06",1012.9,1015.1,1010.2
"2010/05/07",1005.8,1012.0,1002.0
"2010/05/08",1006.4,1009.6,1002.0
"2010/05/09",1011.9,1016.4,1008.7
"2010/05/10",1014.6,1016.3,1012.5
"2010/05/11",1010.6,1013.5,1005.5
"2010/05/12",1004.4,1006.5,1002.6
"2010/05/13",1009.2,1012.7,1005.6
"2010/05/14",1014.9,1018.5,1012.4
"2010/05/15",1021.4,1023.7,1018.3
"2010/05/16",1021.2,1023.1,1018.8
"2010/05/17",1020.7,1022.2,1018.9
"2010/05/18",1017.9,1020.4,1015.6
"2010/05/19",1015.0,1016.2,1013.8
"2010/05/20",1010.9,1014.0,1008.3
"2010/05/21",1009.6,1011.6,1007.4
"2010/05/22",1013.9,1016.4,1010.4
"2010/05/23",1016.3,1017.9,1014.7
"2010/05/24",1005.6,1014.7, 997.9
"2010/05/25", 999.7,1002.0, 997.3
"2010/05/26",1000.9,1004.4, 998.6
"2010/05/27",1005.7,1009.3,1003.6
"2010/05/28",1011.0,1013.4,1008.9
"2010/05/29",1012.9,1013.7,1012.0
"2010/05/30",1013.9,1014.8,1013.0
"2010/05/31",1015.1,1017.5,1013.8
"2010/06/01",1017.9,1019.5,1016.7
"2010/06/02",1019.8,1021.8,1018.5
"2010/06/03",1019.4,1021.2,1017.3
"2010/06/04",1015.6,1018.1,1012.3
"2010/06/05",1013.3,1014.7,1012.0
"2010/06/06",1015.6,1017.3,1014.0
"2010/06/07",1017.7,1019.1,1016.5
"2010/06/08",1017.8,1019.4,1016.0
"2010/06/09",1015.6,1017.2,1014.2
"2010/06/10",1014.8,1016.6,1013.2
"2010/06/11",1016.6,1017.5,1015.8
"2010/06/12",1014.7,1016.3,1012.7
"2010/06/13",1016.5,1018.1,1015.3
"2010/06/14",1014.7,1017.9,1009.8
"2010/06/15",1009.1,1010.8,1006.6
"2010/06/16",1002.8,1007.3, 999.9
"2010/06/17",1008.6,1009.8,1007.0
"2010/06/18",1008.2,1009.8,1005.6
"2010/06/19",1005.5,1008.0,1002.6
"2010/06/20",1005.5,1007.2,1003.7
"2010/06/21",1004.6,1008.0,1002.9
"2010/06/22",1008.4,1009.4,1007.2
"2010/06/23",1005.5,1008.3,1002.2
"2010/06/24",1008.9,1011.9,1005.6
"2010/06/25",1014.8,1017.2,1011.7
"2010/06/26",1016.9,1018.4,1015.6
"2010/06/27",1012.0,1015.6,1009.8
"2010/06/28",1008.2,1009.9,1006.7
"2010/06/29",1007.6,1008.8,1006.2
"2010/06/30",1006.3,1007.4,1005.7
"2010/07/01",1007.1,1008.0,1006.0
"2010/07/02",1006.2,1007.9,1004.4
"2010/07/03",1002.4,1005.4, 997.5
"2010/07/04", 995.6, 998.0, 993.9
"2010/07/05", 998.1, 999.3, 997.3
"2010/07/06",1000.6,1002.7, 998.5
"2010/07/07",1006.5,1008.8,1002.3
"2010/07/08",1009.9,1011.9,1004.7
"2010/07/09",1009.5,1011.8,1004.2
"2010/07/10",1009.0,1012.5,1004.0
"2010/07/11",1011.7,1013.1,1008.6
"2010/07/12",1007.8,1012.2,1006.0
"2010/07/13",1014.4,1016.5,1011.6
"2010/07/14",1013.9,1016.1,1012.3
"2010/07/15",1014.9,1017.0,1013.7
"2010/07/16",1018.4,1020.9,1016.3
"2010/07/17",1021.1,1022.3,1019.7
"2010/07/18",1020.1,1021.8,1018.0
"2010/07/19",1017.4,1019.1,1015.8
"2010/07/20",1016.7,1018.0,1015.1
"2010/07/21",1016.5,1017.7,1015.3
"2010/07/22",1014.7,1016.6,1012.5
"2010/07/23",1012.8,1014.3,1011.1
"2010/07/24",1012.9,1014.7,1010.9
"2010/07/25",1014.2,1017.5,1012.1
"2010/07/26",1015.3,1016.3,1012.7
"2010/07/27",1014.0,1015.3,1012.2
"2010/07/28",1012.2,1014.0,1010.1
"2010/07/29",1008.5,1010.4,1006.6
"2010/07/30",1006.4,1007.5,1005.0
"2010/07/31",1007.4,1008.9,1006.0
"2010/08/01",1008.1,1009.3,1006.7
"2010/08/02",1008.3,1009.5,1006.7
"2010/08/03",1010.3,1012.9,1008.6
"2010/08/04",1015.0,1017.9,1012.4
"2010/08/05",1019.2,1021.0,1017.5
"2010/08/06",1020.7,1021.8,1019.6
"2010/08/07",1018.2,1020.9,1015.9
"2010/08/08",1016.3,1017.6,1014.8
"2010/08/09",1016.7,1017.5,1015.9
"2010/08/10",1016.0,1017.1,1014.6
"2010/08/11",1012.5,1015.4,1009.1
"2010/08/12",1004.6,1009.1,1000.7
"2010/08/13",1008.3,1010.8,1004.7
"2010/08/14",1009.0,1009.9,1007.8
"2010/08/15",1009.9,1011.0,1008.8
"2010/08/16",1009.9,1011.1,1008.3
"2010/08/17",1012.0,1014.7,1010.2
"2010/08/18",1017.3,1021.1,1013.9
"2010/08/19",1022.5,1023.6,1020.6
"2010/08/20",1021.7,1023.4,1019.9
"2010/08/21",1018.0,1020.2,1015.9
"2010/08/22",1014.7,1016.7,1012.4
"2010/08/23",1014.5,1016.0,1013.0
"2010/08/24",1014.8,1016.4,1012.2
"2010/08/25",1015.3,1016.8,1013.4
"2010/08/26",1017.4,1019.7,1016.0
"2010/08/27",1019.3,1020.3,1018.1
"2010/08/28",1018.8,1020.1,1017.0
"2010/08/29",1016.4,1018.7,1014.7
"2010/08/30",1013.6,1015.2,1011.9
"2010/08/31",1015.2,1017.9,1013.2
"2010/09/01",1019.6,1021.6,1017.7
"2010/09/02",1019.8,1021.3,1017.8
"2010/09/03",1014.8,1018.5,1012.0
"2010/09/04",1014.5,1016.8,1013.0
"2010/09/05",1015.8,1017.2,1013.8
"2010/09/06",1013.3,1015.9,1010.4
"2010/09/07",1008.3,1010.4,1006.2
"2010/09/08",1009.3,1012.1,1006.9
"2010/09/09",1012.6,1014.2,1009.1
"2010/09/10",1012.5,1013.7,1010.9
"2010/09/11",1011.2,1013.0,1009.3
"2010/09/12",1009.7,1011.0,1008.0
"2010/09/13",1005.4,1008.2,1003.3
"2010/09/14",1010.8,1015.2,1006.8
"2010/09/15",1016.4,1018.0,1014.8
"2010/09/16",1011.0,1015.5,1008.3
"2010/09/17",1009.1,1011.7,1007.6
"2010/09/18",1013.5,1014.8,1011.7
"2010/09/19",1012.3,1014.1,1010.4
"2010/09/20",1013.0,1014.2,1012.1
"2010/09/21",1010.1,1013.0,1007.6
"2010/09/22",1007.3,1009.6,1005.0
"2010/09/23",1009.8,1013.4,1007.4
"2010/09/24",1015.5,1017.4,1012.9
"2010/09/25",1009.4,1016.6,1004.2
"2010/09/26",1020.9,1023.4,1016.4
"2010/09/27",1021.6,1024.3,1016.6
"2010/09/28",1009.9,1016.7,1004.4
"2010/09/29",1017.7,1021.2,1010.4
"2010/09/30",1020.7,1021.8,1019.6
"2010/10/01",1021.1,1022.9,1019.2
"2010/10/02",1023.2,1024.6,1022.0
"2010/10/03",1018.6,1022.5,1013.4
"2010/10/04",1009.2,1013.5,1005.9
"2010/10/05",1009.6,1011.9,1007.2
"2010/10/06",1015.5,1019.2,1011.8
"2010/10/07",1021.8,1024.0,1019.1
"2010/10/08",1023.9,1025.5,1022.4
"2010/10/09",1017.2,1022.7,1010.2
"2010/10/10",1007.0,1010.4,1004.6
"2010/10/11",1012.9,1017.0,1008.1
"2010/10/12",1015.1,1016.8,1013.1
"2010/10/13",1012.2,1014.1,1010.6
"2010/10/14",1011.2,1013.3,1009.5
"2010/10/15",1010.0,1012.2,1008.4
"2010/10/16",1016.9,1021.3,1011.8
"2010/10/17",1020.6,1021.9,1018.9
"2010/10/18",1025.1,1027.5,1021.8
"2010/10/19",1026.8,1028.6,1024.6
"2010/10/20",1021.5,1025.1,1017.9
"2010/10/21",1016.0,1018.0,1014.2
"2010/10/22",1021.1,1024.1,1016.6
"2010/10/23",1024.3,1025.7,1023.4
"2010/10/24",1018.8,1023.9,1010.8
"2010/10/25",1005.4,1010.9,1002.3
"2010/10/26",1009.2,1018.2,1003.3
"2010/10/27",1024.6,1027.6,1018.1
"2010/10/28",1020.6,1026.4,1015.3
"2010/10/29",1022.2,1027.8,1014.8
"2010/10/30",1022.6,1027.4,1017.3
"2010/10/31",1019.3,1022.0,1014.0
"2010/11/01",1003.9,1014.0,1000.2
"2010/11/02",1007.2,1010.8,1002.1
"2010/11/03",1017.8,1023.3,1010.7
"2010/11/04",1022.7,1025.7,1020.2
"2010/11/05",1019.7,1021.1,1017.9
"2010/11/06",1021.9,1023.6,1020.7
"2010/11/07",1018.5,1021.6,1015.9
"2010/11/08",1011.7,1016.0,1006.8
"2010/11/09",1003.3,1008.2, 997.5
"2010/11/10",1009.5,1010.9,1008.0
"2010/11/11",1020.9,1022.2,1019.1
"2010/11/12",1019.8,1023.0,1017.1
"2010/11/13",1027.8,1030.3,1023.0
"2010/11/14",1021.8,1027.6,1016.5
"2010/11/15",1017.0,1021.9,1014.4
"2010/11/16",1023.9,1025.7,1021.8
"2010/11/17",1020.4,1023.1,1018.2
"2010/11/18",1019.7,1021.9,1018.0
"2010/11/19",1022.2,1023.8,1020.9
"2010/11/20",1019.1,1021.0,1017.2
"2010/11/21",1018.3,1020.2,1017.1
"2010/11/22",1014.0,1017.4,1009.7
"2010/11/23",1010.8,1017.4,1006.8
"2010/11/24",1019.9,1021.8,1017.2
"2010/11/25",1018.5,1021.1,1015.2
"2010/11/26",1011.7,1015.3,1009.4
"2010/11/27",1014.7,1016.3,1012.5
"2010/11/28",1013.6,1017.3,1010.6
"2010/11/29",1018.2,1021.0,1015.3
"2010/11/30",1021.7,1024.8,1018.7
"2010/12/01",1021.4,1024.9,1018.5
"2010/12/02",1024.3,1026.6,1018.4
"2010/12/03",1001.9,1018.4, 992.9
"2010/12/04",1011.0,1016.0,1003.4
"2010/12/05",1017.0,1018.8,1015.6
"2010/12/06",1013.1,1016.7,1008.4
"2010/12/07",1005.4,1008.5,1003.2
"2010/12/08",1004.8,1006.8,1003.2
"2010/12/09",1002.7,1007.3, 999.7
"2010/12/10",1015.7,1018.6,1007.3
"2010/12/11",1012.8,1017.4,1009.2
"2010/12/12",1020.3,1026.5,1012.1
"2010/12/13",1021.2,1026.8,1008.5
"2010/12/14",1004.5,1008.7,1002.3
"2010/12/15",1005.2,1010.9,1001.0
"2010/12/16",1009.0,1011.2,1006.7
"2010/12/17",1010.5,1012.2,1007.7
"2010/12/18",1014.8,1023.1,1010.1
"2010/12/19",1025.0,1028.2,1021.0
"2010/12/20",1015.4,1021.0,1011.9
"2010/12/21",1017.6,1020.9,1011.2
"2010/12/22",1000.6,1011.3, 996.4
"2010/12/23",1004.9,1008.7, 999.7
"2010/12/24",1004.8,1008.1,1001.8
"2010/12/25",1001.3,1004.3, 998.9
"2010/12/26",1002.5,1004.9,1000.5
"2010/12/27",1005.6,1010.8,1001.8
"2010/12/28",1007.3,1012.1, 997.2
"2010/12/29",1004.7,1011.5, 997.0
"2010/12/30",1006.4,1012.0, 997.4
"2010/12/31", 992.3, 997.5, 989.3
